Meeker, CO

9:42 PM MST on February 18, 2018 (GMT -0700)
Meeker

Weather History for KEEO - November, 2011

Change the Weather History Date:

Saturday, November 5, 2011

  Actual Average Record
Temperature  
Mean Temperature 37 °F 37 °F  
Max Temperature 50 °F 51 °F 68 °F (1999)
Min Temperature 24 °F 23 °F 4 °F (2013)
Degree Days  
Heating Degree Days 28 28  
Month to date heating degree days 138  
Since 1 July heating degree days 1082  
Cooling Degree Days 0 0  
Month to date cooling degree days 0  
Year to date cooling degree days 172  
Moisture  
Dew Point 29 °F    
Average Humidity 87    
Maximum Humidity 96    
Minimum Humidity 34    
Precipitation  
Precipitation 0.30 in 0.05 in 0.30 in (2011)
Month to date precipitation 0.29  
Year to date precipitation 13.77  
Sea Level Pressure  
Sea Level Pressure 29.59 in    
Wind  
Wind Speed 6 mph (WSW)    
Max Wind Speed 18 mph    
Max Gust Speed 29 mph    
Visibility 5 miles    
Events Rain , Snow    
T = Trace of Precipitation, MM = Missing Value Source: NWS Daily Summary

Daily Weather History Graph

Daily Weather History Graph

Search for Another Location

Airport or City:

Trip Planner

Search our weather history database for the weather conditions in past years. The results will help you decide how hot, cold, wet, or windy it might be!

Date:

Astronomy

Nov. 05, 2011 Rise Set
Actual Time 7:45 AM MDT 6:04 PM MDT
Civil Twilight 7:16 AM MDT 6:33 PM MDT
Nautical Twilight 6:44 AM MDT 7:05 PM MDT
Astronomical Twilight 6:12 AM MDT 7:36 PM MDT
Moon 3:24 PM MDT (11/5) 2:57 AM MDT (11/5)
Length of Visible Light 11h 16m
Length of Day
10h 19m
Waxing Gibbous, 78% of the Moon is Illuminated
Nov 5
Waxing Gibbous
Nov 10
Full
Nov 18
Last Quarter
Nov 24
New
Dec 2
First Quarter

Hourly Weather History & Observations

Time (MDT) Temp. Windchill Dew Point Humidity Pressure Visibility Wind Dir Wind Speed Gust Speed Precip Events Conditions
12:53 AM 48.0 °F - 21.0 °F 34% 29.37 in 10.0 mi SSW 5.8 mph - N/A   Partly Cloudy
1:53 AM 37.9 °F 35.5 °F 21.9 °F 53% 29.37 in 10.0 mi Variable 3.5 mph - N/A   Mostly Cloudy
2:53 AM 50.0 °F - 24.1 °F 36% 29.33 in 10.0 mi South 18.4 mph 23.0 mph N/A   Overcast
3:53 AM 41.0 °F 34.7 °F 35.1 °F 79% 29.38 in 10.0 mi SSW 10.4 mph - 0.00 in Rain Light Rain
4:50 AM 39.2 °F 34.2 °F 35.6 °F 87% 29.52 in 10.0 mi South 6.9 mph - 0.01 in Rain Light Rain
4:53 AM 39.0 °F 35.7 °F 36.0 °F 89% 29.38 in 10.0 mi SSW 4.6 mph - 0.01 in Rain Light Rain
5:07 AM 39.2 °F 35.0 °F 35.6 °F 87% 29.53 in 10.0 mi WSW 5.8 mph - 0.00 in Rain Light Rain
6:40 AM 37.4 °F 34.9 °F 35.6 °F 93% 29.50 in 10.0 mi ESE 3.5 mph - 0.00 in Rain Light Rain
7:40 AM 37.4 °F - 35.6 °F 93% 29.48 in 9.0 mi Calm Calm - 0.01 in Rain Light Rain
7:53 AM 37.9 °F - 35.1 °F 89% 29.40 in 10.0 mi Calm Calm - 0.02 in Rain Light Rain
8:53 AM 37.9 °F - 36.0 °F 93% 29.39 in 10.0 mi Calm Calm - 0.00 in Rain Light Rain
9:10 AM 37.4 °F 33.8 °F 35.6 °F 93% 29.47 in 5.0 mi SSW 4.6 mph - 0.01 in Rain Light Rain
9:53 AM 37.0 °F - 35.1 °F 93% 29.33 in 10.0 mi Calm Calm - 0.05 in Rain Light Rain
10:09 AM 37.4 °F 33.8 °F 35.6 °F 93% 29.45 in 10.0 mi WSW 4.6 mph - 0.00 in Rain Light Rain
10:53 AM 36.0 °F 33.3 °F 33.1 °F 89% 29.35 in 3.0 mi WNW 3.5 mph - 0.03 in Rain Rain
11:03 AM 35.6 °F - 33.8 °F 93% 29.47 in 4.0 mi Calm Calm - 0.01 in Snow Light Snow
11:10 AM 35.6 °F - 33.8 °F 93% 29.47 in 2.0 mi Calm Calm - 0.03 in Snow Light Snow
11:20 AM 35.6 °F - 33.8 °F 93% 29.47 in 2.5 mi Calm Calm - 0.04 in Snow Light Snow
11:32 AM 35.6 °F 32.8 °F 33.8 °F 93% 29.48 in 4.0 mi WSW 3.5 mph - 0.05 in Snow Light Snow
11:53 AM 35.1 °F - 34.0 °F 96% 29.38 in 5.0 mi Calm Calm - 0.06 in Rain Light Rain
12:32 PM 35.6 °F 26.2 °F 33.8 °F 93% 29.49 in 6.0 mi West 15.0 mph 20.7 mph 0.02 in Snow Light Snow
12:39 PM 35.6 °F 25.5 °F 32.0 °F 87% 29.49 in 2.5 mi West 17.3 mph 23.0 mph 0.02 in Snow Light Snow
12:42 PM 35.6 °F 26.2 °F 32.0 °F 87% 29.49 in 1.8 mi West 15.0 mph 23.0 mph 0.02 in Snow Light Snow
12:51 PM 33.8 °F 23.2 °F 30.2 °F 87% 29.50 in 1.0 mi West 17.3 mph 28.8 mph 0.03 in Snow Light Snow
12:53 PM 34.0 °F 23.8 °F 30.9 °F 89% 29.42 in 1.0 mi WNW 16.1 mph 28.8 mph 0.03 in Snow Light Snow
12:56 PM 33.8 °F 23.5 °F 30.2 °F 87% 29.50 in 0.8 mi WNW 16.1 mph 25.3 mph 0.00 in Snow Light Snow
2:03 PM 32.0 °F 23.6 °F 28.4 °F 87% 29.55 in 0.8 mi NNW 10.4 mph - 0.01 in Snow Light Snow
2:11 PM 30.2 °F 21.3 °F 28.4 °F 93% 29.55 in 1.0 mi NNW 10.4 mph - 0.01 in Snow Light Snow
2:30 PM 30.2 °F 22.6 °F 28.4 °F 93% 29.57 in 0.8 mi NW 8.1 mph 16.1 mph 0.02 in Snow Light Snow
2:40 PM 30.2 °F 21.9 °F 28.4 °F 93% 29.57 in 1.2 mi NNW 9.2 mph - 0.02 in Snow Light Snow
2:51 PM 30.2 °F 24.3 °F 28.4 °F 93% 29.58 in 0.8 mi NW 5.8 mph - 0.02 in Snow Light Snow
2:53 PM 30.9 °F 25.2 °F 28.0 °F 89% 29.50 in 0.8 mi NW 5.8 mph - 0.02 in Snow Light Snow
3:53 PM 30.0 °F 26.5 °F 28.0 °F 92% 29.60 in 0.8 mi Variable 3.5 mph - 0.03 in Snow Light Snow
4:30 PM 28.4 °F 23.3 °F 26.6 °F 93% 29.66 in 1.0 mi West 4.6 mph - 0.02 in Snow Light Snow
4:35 PM 30.2 °F 25.4 °F 26.6 °F 86% 29.66 in 1.2 mi West 4.6 mph - 0.02 in Snow Light Snow
4:49 PM 30.2 °F 26.7 °F 26.6 °F 86% 29.67 in 3.0 mi West 3.5 mph - 0.02 in Snow Light Snow
4:53 PM 30.0 °F - 27.0 °F 88% 29.65 in 7.0 mi Calm Calm - 0.02 in Snow Light Snow
5:00 PM 30.2 °F - 26.6 °F 86% 29.68 in 8.0 mi Calm Calm - 0.00 in Snow Light Snow
5:53 PM 30.0 °F 26.5 °F 27.0 °F 88% 29.69 in 10.0 mi SSE 3.5 mph - 0.00 in   Overcast
6:24 PM 30.2 °F 26.7 °F 26.6 °F 86% 29.72 in 2.5 mi SW 3.5 mph - 0.00 in Snow Light Snow
6:33 PM 28.4 °F 24.6 °F 26.6 °F 93% 29.73 in 1.5 mi WSW 3.5 mph - 0.00 in Snow Light Snow
6:53 PM 28.9 °F 25.2 °F 28.0 °F 96% 29.75 in 1.0 mi West 3.5 mph - 0.01 in Snow Light Snow
7:04 PM 28.4 °F 22.2 °F 26.6 °F 93% 29.75 in 0.8 mi WSW 5.8 mph - 0.01 in Snow Light Snow
7:15 PM 28.4 °F 23.3 °F 26.6 °F 93% 29.76 in 1.2 mi West 4.6 mph - 0.01 in Snow Light Snow
7:19 PM 28.4 °F 24.6 °F 26.6 °F 93% 29.76 in 2.0 mi West 3.5 mph - 0.01 in Snow Light Snow
7:27 PM 28.4 °F 23.3 °F 26.6 °F 93% 29.76 in 4.0 mi SW 4.6 mph - 0.01 in Snow Light Snow
7:53 PM 28.0 °F 22.8 °F 27.0 °F 96% 29.78 in 10.0 mi SW 4.6 mph - 0.01 in   Overcast
8:53 PM 27.0 °F 19.5 °F 23.0 °F 85% 29.82 in 8.0 mi SSW 6.9 mph - 0.00 in Snow Light Snow
9:31 PM 26.6 °F 16.8 °F 24.8 °F 93% 29.83 in 2.0 mi SSW 10.4 mph - 0.00 in Snow Light Snow
9:39 PM 26.6 °F 16.2 °F 24.8 °F 93% 29.84 in 1.5 mi SW 11.5 mph - 0.00 in Snow Light Snow
9:53 PM 26.1 °F 19.4 °F 24.1 °F 92% 29.85 in 2.0 mi SW 5.8 mph - 0.00 in Snow Light Snow
10:28 PM 24.8 °F 19.1 °F 21.2 °F 86% 29.85 in 1.5 mi WSW 4.6 mph - 0.01 in Snow Light Snow
10:42 PM 24.8 °F 19.1 °F 23.0 °F 93% 29.85 in 3.0 mi SW 4.6 mph - 0.01 in Snow Light Snow
10:51 PM 24.8 °F 19.1 °F 19.4 °F 80% 29.85 in 9.0 mi SSW 4.6 mph - 0.01 in Snow Light Snow
10:53 PM 25.0 °F 19.3 °F 19.9 °F 81% 29.87 in 9.0 mi SSW 4.6 mph - 0.01 in   Overcast
11:53 PM 25.0 °F - 21.0 °F 85% 29.88 in 10.0 mi Calm Calm - N/A   Overcast